COSMOS 397 DEB, 5098

Orbit data source: Space-Track

COSMOS 397 DEB, 5098 is space debris in LEO originally from a launch on Thu, 25 Feb 1971 UTC launched from the Tyuratam Missile And Space Complex (TTMTR). Debris objects in space refer to the collection of defunct objects orbiting the Earth. Examples of debris include non-operational satellites, rocket bodies, and fragments generated from explosions, collisions, or faulty payload assembly.

Loading next visibility...
Identifier
5098, 1971-015X
Orbit
LEO
Country
Flag of CISCIS
Related business
Manufacturer
Unknown
Mission
Spacecraft
Bus & Motor
Unknown
Mass
Unknown
Launch date (UTC)
1971-02-25 (55 years ago)
Launch vehicle
Unknown
Launch site
Tyuratam Missile And Space Complex (TTMTR)
Object type
Payload
Rocket body
Debris
Shape & HBR
Unknown shape, 0.1 m
Radar Cross Section
Small (<0.1 m²)

Expand to show TLE details & history
Last TLE update: 19 hours ago

TLE from 19 hours ago
0 COSMOS 397 DEB
1 05098U 71015X   25349.73920538  .00001407  00000-0  51878-3 0  9990
2 05098  65.8347 349.4704 0703594  53.1866 313.1644 13.47050870626343
Epoch: 2025-12-15T17:44Z
TLE epoch observation values (Epoch: 2025-12-15T17:44:27.344Z)
Latitude
-0.00001°
Longitude
-1.27699°
Altitude
747.041 km
Speed
7.649 km/s
True Right ascension
23h 17m 52s
True Declination
0° 00' 00"
Sunlit
Object was in daylight at epoch
Visualization orbit readout
Latitude
Unknown
Longitude
Unknown
Altitude
Unknown
Speed
Unknown
Apparent Right ascension
Unknown
Apparent Declination
Unknown
Sunlit
N/A
Visualization observer readout
Local Sidereal Time
11:31:06
Azimuth
Unknown
Elevation
Unknown
Doppler factor
Unknown
Orbital elements
Apogee altitude
1,606.522 km
Perigee altitude
556.789 km
Semi-major axis
7,459.792 km
Eccentricity
0.07036
Inclination
65.8347°
RAAN
349.4704°
Arg. of periapsis
53.1866°
True anomaly
306.92063°
Mean anomaly
313.1644°
Eccentric anomaly
310.07986°
Mean motion
3.36863 °/min
Orbital period
106.87 mins
BSTAR
0.00051878
Loading maneuver chart data...
Computing Atmospheric mass density...
Loading historical data...
Loading historical data...
Loading historical data...
Loading historical data...
Loading historical data...
Loading historical data...
Loading historical data...

Documentation

Showing up to 5 results
|